map of CAW home
Great Circle Mapper logo
CAW - Airport
Location
City:  Campos dos Goitacazes, Rio de Janeiro, Brazil
Name:Bartolomeu Lysandro
ICAO / IATA:SBCP / CAW

Details
Type:Airport (Aerodrome, Airfield)
Use:Public/Civil
Latitude:2141'54"S (-21.698332)
Longitude:4118'06"W (-41.301668)
Datum:WGS 1984
Elevation:57 ft (17 m)
Variation:23.26W (WMM2015 magnetic declination)
-0.08 annual change
Runways:1
Longest:5066 × 148 ft (1544 × 45 m), paved

Time
Time Zone:UTC-3 (DST-2)
Local Time:

Weather
METAR:SBCP 261300Z 00000KT CAVOK 24/24 Q1018
TAF:SBCP 260850Z 2612/2624 36005KT 9999 FEW030 TX31/2617Z TN22/2623Z
BECMG 2613/2615 03010KT
BECMG 2616/2618 08015KT
BECMG 2621/2623 05010KT
RMK PGB

Related Locations
Nearby:
Farthest:IWO: 12166 mi / 19579 km
Iwo Jima [Iwo Jima AB], Iwo Jima Island, JP

Find:

   beyond  
but within

Other Information
Maps:
NOTAMs:
Links:
Sources:

  
flag of Brazil
flag of Rio de Janeiro
  

Sectional Chart

Flight Planning
at skyvector.com

Satellite Image

Google Maps Satellite View

 

Copyright © 2004-2015 Karl L. Swartz. All rights reserved.
The Great Circle Mapper name and logo are trademarks of the Great Circle Mapper.
All other trademarks mentioned herein belong to their respective owners.
Please see credits for attibutions and further copyright information.

  Follow gcmap on Facebook Follow gcmap on Twitter Follow gcmap on Google+

hCard Microformat

Geo Microformat